TimeCST,TemperatureF,Dew PointF,Humidity,Sea Level PressureIn,VisibilityMPH,Wind Direction,Wind SpeedMPH,Gust SpeedMPH,PrecipitationIn,Events,Conditions,WindDirDegrees,DateUTC
12:53 AM,45.0,28.0,52,30.15,10.0,West,10.4,19.6,N/A,,Clear,270,2013-02-03 06:53:00
1:53 AM,45.0,27.0,49,30.13,10.0,West,11.5,23.0,N/A,,Clear,270,2013-02-03 07:53:00
2:53 AM,46.0,26.1,46,30.15,10.0,WNW,11.5,20.7,N/A,,Clear,300,2013-02-03 08:53:00
3:53 AM,43.0,27.0,53,30.15,10.0,WNW,9.2,19.6,N/A,,Clear,300,2013-02-03 09:53:00
4:53 AM,41.0,27.0,57,30.17,10.0,WNW,9.2,-,N/A,,Clear,300,2013-02-03 10:53:00
5:53 AM,39.9,26.1,58,30.18,10.0,NW,11.5,18.4,N/A,,Clear,310,2013-02-03 11:53:00
6:53 AM,37.9,27.0,65,30.19,10.0,WNW,9.2,-,N/A,,Clear,300,2013-02-03 12:53:00
7:53 AM,37.9,27.0,65,30.22,10.0,NW,10.4,19.6,N/A,,Clear,310,2013-02-03 13:53:00
8:53 AM,39.9,26.1,58,30.25,10.0,NW,16.1,21.9,N/A,,Clear,310,2013-02-03 14:53:00
9:53 AM,42.1,23.0,47,30.26,10.0,NW,15.0,21.9,N/A,,Clear,320,2013-02-03 15:53:00
10:53 AM,46.0,19.9,35,30.26,10.0,NNW,12.7,18.4,N/A,,Clear,330,2013-02-03 16:53:00
11:53 AM,48.9,17.1,28,30.25,10.0,NNW,9.2,21.9,N/A,,Clear,330,2013-02-03 17:53:00
12:53 PM,50.0,17.1,27,30.22,10.0,NW,10.4,-,N/A,,Clear,310,2013-02-03 18:53:00
1:53 PM,50.0,18.0,28,30.20,10.0,Variable,6.9,-,N/A,,Clear,0,2013-02-03 19:53:00
2:53 PM,52.0,18.0,26,30.17,10.0,WNW,5.8,-,N/A,,Clear,300,2013-02-03 20:53:00
3:53 PM,52.0,18.0,26,30.14,10.0,Calm,Calm,-,N/A,,Clear,0,2013-02-03 21:53:00
4:53 PM,50.0,19.0,29,30.13,10.0,SE,4.6,-,N/A,,Clear,130,2013-02-03 22:53:00
5:53 PM,45.0,19.9,37,30.12,10.0,SSE,4.6,-,N/A,,Clear,150,2013-02-03 23:53:00
6:53 PM,42.1,21.0,43,30.12,10.0,SSE,5.8,-,N/A,,Clear,150,2013-02-04 00:53:00
7:53 PM,41.0,21.9,47,30.10,10.0,South,5.8,-,N/A,,Clear,180,2013-02-04 01:53:00
8:53 PM,41.0,21.9,47,30.09,10.0,South,5.8,-,N/A,,Clear,170,2013-02-04 02:53:00
9:53 PM,42.1,23.0,47,30.06,10.0,SE,8.1,-,N/A,,Clear,140,2013-02-04 03:53:00
10:53 PM,43.0,23.0,45,30.04,10.0,SSE,5.8,-,N/A,,Clear,160,2013-02-04 04:53:00
11:53 PM,43.0,23.0,45,30.01,10.0,SSE,8.1,-,N/A,,Clear,160,2013-02-04 05:53:00